Location: Gaast
(52.9002°N, 5.8891°E)
Time: 06:58:20
(UTC+00:00)

Meteor 2-12 Rocket - Pass Details

Date: 18 November 2025
Orbit: 934 x 958 km, 82.5° (Epoch: 11 December)

Event Time Altitude Azimuth Distance (km) Brightness Sun altitude
Rises 16:59:36 0° 348° (NNW) 3,631 7.4 -12.1°
Reaches altitude 10° 17:02:07 10° 349° (N) 2,678 6.8 -12.5°
Maximum altitude 17:08:15 88° 77° (ENE) 950 4.4 -13.4°
Drops below altitude 10° 17:14:19 10° 170° (S) 2,645 6.8 -14.3°
Sets 17:16:47 0° 171° (S) 3,583 7.5 -14.6°
